Location: �couen
(49.0206°N, 2.3831°E)
Time: 04:07:03
(UTC+00:00)

Cosmos 2098 - Pass Details

Date: 16 October 2021
Orbit: 389 x 1581 km, 82.9° (Epoch: 29 November)

Event Time Altitude Azimuth Distance (km) Brightness Sun altitude
Rises 17:44:24 0° 174° (S) 2,321 8.0 -8.3°
Reaches altitude 10° 17:46:26 10° 168° (SSE) 1,430 6.9 -8.6°
Maximum altitude 17:49:17 44° 94° (E) 560 4.4 -9.1°
Drops below altitude 10° 17:52:16 10° 21° (NNE) 1,492 6.8 -9.6°
Sets 17:54:27 0° 15° (NNE) 2,441 8.0 -9.9°
